Location: *
(49.4547°N, 7.9131°E)
Time: 20:22:36
(UTC+00:00)

CZ-2C R/B - Pass Details

Date: 22 September 2019
Orbit: 785 x 870 km, 98.3° (Epoch: 20 October)

Event Time Altitude Azimuth Distance (km) Brightness Sun altitude
Rises 20:55:40 0° 12° (NNE) 3,442 6.3 -31.4°
Reaches altitude 10° 20:58:03 10° 10° (N) 2,510 5.5 -31.7°
Enters shadow 21:02:36 57° 341° (NNW) 1,021 3.2 -32.2°
